sat.trackr.live / text

‹ back to catalog

STARLINK-31529

NORAD 59000 · 2024-036C

PAYLOAD ACTIVE UNKNOWN

§ Identity

Operator
Country
US
Launch date
2024-02-23
Launch site
AFWTR
Launch vehicle
Mass (kg)
RCS (m²)

Purposes: comms

External: N2YO · Heavens-Above · Gunter

§ Orbital elements

Epoch: 2026-09-20T22:53:36.471840Z

Period
93.85 min
Inclination
53.1605°
Eccentricity
0.0001359
Mean motion
15.34398075 rev/d
Perigee alt
461.8 km
Apogee alt
463.6 km
Semi-major
6,840.8 km
B*
-1.5369e-5
RAAN
247.2884°
Arg perigee
71.8895°
Mean anomaly
288.2256°
Rev number
14,519

§ Raw data

STARLINK-315291 59000U 24036C   26263.95389435 -.00000896  00000+0 -15369-4 0  99962 59000  53.1605 247.2884 0001359  71.8895 288.2256 15.34398075145195

JSON: /api/v1/satellites/59000 · /tle

For live sub-satellite position, see the globe view (requires WebGL).

§ Visibility from observer

Set your observer location to see the next 7 days of passes ≥ 10°. The values pass through the URL so the page stays shareable.

No JS? Fill the form by hand. The geolocation button needs JavaScript.